User: anonymous   Login
Location: *
(39.6167°S, 171.5333°W)
Time: 22:47:23
(UTC+00:00)
Language:

Cosmos 1825 - Orbit

View from above orbital plane
View from above orbital plane
View from above satellite
View from above satellite

Ground track
Ground track

The orbit data is extracted from the following two-line orbital elements,

1 17566U 87024A   21213.37712463  .00000780  00000-0  33948-4 0  9994
2 17566  82.5027 234.5973 0004104  27.8073 332.3381 15.20732915882309
Epoch (UTC): 01 August 2021 09:03:03
Eccentricity: 0.0004104
inclination: 82.5027°
perigee height: 501 km
apogee height: 506 km
right ascension of ascending node: 234.5973°
argument of perigee: 27.8073°
revolutions per day: 15.20732915
mean anomaly at epoch: 332.3381°
orbit number at epoch: 88230

The dashed part of the orbit path shows where the satellite is in the earth's shadow,  

DLR